カタログに戻る

RADIO 4

運用中アマチュア無線PO
NORAD 13000·PAYLOAD·🇷🇺 Russia

打ち上げ Dec 17, 1981 から Plesetsk Cosmodrome

Loading…

次のパス (今後24時間)

TLE

最新Source: Space-Track

元期: Sep 14, 2026, 07:05 UTC

1 13000U 81120D   26257.29582565  .00000092  00000-0  93878-3 0  9999
2 13000  82.9663  11.8185 0017416 351.5978  35.6897 12.06920168970909

AllMySatでRADIO 4をリアルタイム追跡

Download on the App Store